Regional Weather Roundup
Issued by NWS

Home | Current Version | Previous Version | Graphics & Text | Print | Product List | Glossary On
Versions: 1 2 3 4 5 6 7 8 9 10 11 12 13 14 15 16 17 18 19 20 21 22 23 24 25 26 27 28 29 30 31 32 33 34 35 36 37 38 39 40 41 42 43 44 45 46 47 48 49 50
000
ASUS43 KMKX 170111
RWRWI

WISCONSIN REGIONAL WEATHER ROUNDUP
NATIONAL WEATHER SERVICE MILWAUKEE/SULLIVAN WI
800 PM CDT WED APR 16 2014

NOTE: "FAIR" INDICATES FEW OR NO CLOUDS BELOW 12,000 FEET WITH NO
SIGNIFICANT WEATHER AND/OR OBSTRUCTIONS TO VISIBILITY.

WIZ001-002-006>008-014>016-023>028-170200-
NORTHWEST WISCONSIN

CITY           SKY/WX    TMP DP  RH WIND       PRES   REMARKS
SUPERIOR ARPT  LGT SNOW  28  26  95 NE22      30.16S WCI  13
ASHLAND        SNOW      27  26  96 NE20      30.16S VSB 1/2 WCI  13
HAYWARD        SNOW      28  25  88 NE14      30.05S VSB 1/2 WCI  17
SIREN          LGT SNOW  29  28  94 NE12G21   30.02S WCI  19
RICE LAKE      LGT SNOW  34  32  93 NE8       30.00R WCI  27
LADYSMITH      CLOUDY    35  32  88 E9        30.03R FOG     WCI  28
EAU CLAIRE     CLOUDY    46  31  55 NE12G22   29.92R
MENOMONIE      RAIN      40  35  83 N14       29.92R WCI  32
NEW RICHMOND   RAIN      33  33 100 NE15      29.94S WCI  23
OSCEOLA        LGT SNOW  32  32 100 NE9       29.98F WCI  24
$$

WIZ003>005-009-010-017-018-170200-
NORTH CENTRAL WISCONSIN

CITY           SKY/WX    TMP DP  RH WIND       PRES   REMARKS
WOODRUFF       LGT SNOW  32  28  87 E8        30.08R VSB 1   WCI  25
RHINELANDER    LGT SNOW  30  25  81 SE15      30.08R WCI  19
EAGLE RIVER    LGT SNOW  29  26  86 SE8G16    30.10R VSB 3/4 WCI  21
LAND O LAKES   SNOW      29  28  95 SE9       30.12S VSB 1/2 WCI  21
PHILLIPS       LGT SNOW  32  28  84 E9G16     30.03S WCI  24
TOMAHAWK       LGT SNOW  32  28  84 SE9       30.06S WCI  24
MEDFORD        FLURRIES  34  30  85 E12G20    30.02R WCI  26
MERRILL        LGT SNOW  34  28  77 CALM      30.07R
$$

WIZ029-030-035-036-043>047-170200-
CENTRAL WISCONSIN

CITY           SKY/WX    TMP DP  RH WIND       PRES   REMARKS
WAUSAU         LGT SNOW  36  27  69 SE16G28   30.05R WCI  26
MOSINEE        NOT AVBL
MARSHFIELD     CLOUDY    38  30  73 E21G29    29.99S WCI  28
STEVENS POINT  CLOUDY    36  26  65 SE14G25   30.06R WCI  27
WAUPACA        CLOUDY    41  27  56 E17G23    30.09S
WAUTOMA        CLOUDY    42  29  60 SE10      30.07R
WISC RAPIDS    CLOUDY    40  29  64 E12       30.05R WCI  33
CAMP DOUGLAS   CLOUDY    46  32  57 SE15      29.97F
$$

WIZ011>013-019>022-031-037>040-048>050-170200-
NORTHEAST WISCONSIN

CITY           SKY/WX    TMP DP  RH WIND       PRES   REMARKS
ANTIGO         CLOUDY    32  25  74 SE20G29   30.09S WCI  20
STURGEON BAY   CLOUDY    34  27  75 E14G20    30.19F WCI  24
GREEN BAY      CLOUDY    39  23  52 SE18      30.15F WCI  30
MANITOWOC      CLOUDY    39  25  57 SE14      30.19R WCI  31
APPLETON       CLOUDY    37  25  60 SE16G23   30.12R WCI  28
CLINTONVILLE   CLOUDY    37  25  60 SE10G23   30.13R WCI  30
OSHKOSH        CLOUDY    40  24  53 SE18G28   30.09F WCI  31
$$

WIZ032>034-041-042-053>061-170200-
SOUTHWEST WISCONSIN

CITY           SKY/WX    TMP DP  RH WIND       PRES   REMARKS
LA CROSSE      CLOUDY    52  28  39 SE20G26   29.90R
SPARTA         CLOUDY    50  27  41 SE12G22   29.95S
VIROQUA        CLOUDY    47  30  51 SE16      29.93R
BOSCOBEL       CLOUDY    52  28  39 VRB7      29.96F
PRAIRIE DU CHI CLOUDY    53  25  34 SE13G22   29.92S
PLATTEVILLE    FAIR      49  30  49 SE16      30.00S
$$

WIZ056-057-062-063-064-067-068-170200-
SOUTH CENTRAL WISCONSIN

CITY           SKY/WX    TMP DP  RH WIND       PRES   REMARKS
BARABOO/DELLS  CLOUDY    47  29  51 SE10      30.03R
LONE ROCK      CLOUDY    50  29  44 SE16G22   30.00R
WATERTOWN      CLOUDY    43  27  52 SE18G24   30.06F
MADISON        CLOUDY    49  29  46 SE17G33   30.02S
MIDDLETON      FAIR      49  26  40 S18G24    30.04R
MONROE         CLOUDY    47  30  50 S17G25    30.03R
JANESVILLE     CLOUDY    50  27  40 SE15G21   30.05S
$$

WIZ051-052-058>065-066-070>072-170200-
SOUTHEAST WISCONSIN

CITY           SKY/WX    TMP DP  RH WIND       PRES   REMARKS
MILWAUKEE      CLOUDY    42  27  55 SE23G29   30.16R
WAUKESHA       CLOUDY    41  23  48 SE17G26   30.12S
MILWAUKEE/TIMM CLOUDY    43  25  49 SE12G21   30.14S
RACINE         CLOUDY    41  28  60 SE16G26   30.16S
BURLINGTON     CLOUDY    43  27  53 SW15      30.10F
KENOSHA        CLOUDY    43  27  53 SE15      30.14R
FOND DU LAC    CLOUDY    40  25  55 SE20G25   30.09F WCI  30
SHEBOYGAN      CLOUDY    40  23  50 SE13      30.16S WCI  32
WEST BEND      CLOUDY    39  23  52 SE15G23   30.13S WCI  31
JUNEAU         CLOUDY    42  22  44 SE18G26   30.07F
$$

LSZ147-162-170200-
LAKE SUPERIOR

STATION/POSITION TIME  TEMP    WIND        PRES    WAVE
                       AIR SEA DIR/SP/G            HT/PER
                 (UTC) (F)     (DEG/KT/KT) (MB)    (FT/S)
DEVILS ISLAND    0100   28      60/ 31/ 35 1023.7F
PORT WING        0002   28      50/ 20/ 25 1021.3S
SAXON HARBOR     0000           50/ 20/ 24 1020.7S
$$

LMZ867-665-643>646-170200-
LAKE MICHIGAN

STATION/POSITION TIME  TEMP    WIND        PRES    WAVE
                       AIR SEA DIR/SP/G            HT/PER
                 (UTC) (F)     (DEG/KT/KT) (MB)    (FT/S)
NORTHPORT PIER   0000   31     100/ 25/ 29 1023.4F
SISTER BAY       0023   31     120/ 16/ 23   N/A
SHEBOYGAN LAKESH 0100   40     120/ 22/ 24 1022.2S
PORT WASHINGTON  0040   40     120/ 15/ 20 1021.7S
MILWAUKEE LAKESH 0000   39     120/ 18/ 21   N/A
KENOSHA   LAKESH 0100   40     130/ 20/ 22   N/A
$$

TC  - TEMPERATURE IN CELSIUS
VSB - VISIBILITY IN STATUTE MILES
WCI - WIND CHILL INDEX
HX  - HEAT INDEX




USA.gov is the U.S. government's official web portal to all federal, state and local government web resources and services.